Regional Weather Roundup
Issued by NWS Austin/San Antonio, TX

Home | Current Version | Previous Version | Text Only | Print | Product List | Glossary On
Versions: 1 2 3 4 5 6 7 8 9 10 11 12 13 14 15 16 17 18 19 20 21 22 23 24 25 26 27 28 29 30 31 32 33 34 35 36 37 38 39 40 41 42 43 44 45 46 47 48 49 50
000
ASUS44 KEWX 162101
RWREWX
SOUTH TEXAS REGIONAL WEATHER ROUNDUP
NATIONAL WEATHER SERVICE AUSTIN/SAN ANTONIO TX
300 PM CST TUE JAN 16 2018

NOTE: "FAIR" INDICATED FEW OR NO CLOUDS BELOW 12,000 FEET WITH NO
SIGNIFICANT WEATHER AND/OR OBSTRUCTIONS TO VISIBILITY.

* - THESE STATIONS ARE NOT NWS OR FAA STATIONS...AND ARE NOT SUBJECT
    TO NWS AND FAA QUALITY CONTROL.

TXZ171-172-183>190-162200-
TEXAS HILL COUNTRY AND EDWARDS PLATEAU

CITY           SKY/WX    TMP DP  RH WIND       PRES   REMARKS
JUNCTION       CLOUDY    27  -1  30 N10       30.65S WCI  17
*LLANO         CLOUDY    30   0  27 N14G24    30.72F WCI  20
BURNET         CLOUDY    26  -1  31 N14G22    30.67F WCI  14
*HORSESHOE BAY CLOUDY    28   1  31 N10G23    30.67F WCI  19
*KERRVILLE     CLOUDY    26   4  39 N15       30.62S WCI  14
*FREDERICKSBRG CLOUDY    27  -2  28 N15G23    30.62F WCI  15
*ROCKSPRINGS     N/A     27  -4  26 NE12G18   30.64S WCI  16
*BOERNE STAGE  CLOUDY    27   9  46 N10G21    30.63R WCI  17
*CASTROVILLE   CLOUDY    30  14  50 N12       30.67F WCI  21
HONDO          CLOUDY    32  18  56 N16       30.65F WCI  21
*UVALDE        CLOUDY    33   8  35 N12       30.67S WCI  24
DEL RIO        CLOUDY    34  -1  22 NW15G21   30.68F WCI  24
LAUGHLIN AFB   CLOUDY    34  -2  21 N13       30.66F WCI  25
CARRIZO SPRGS  CLOUDY    34  19  55 N13G18    30.67S WCI  25
*EAGLE PASS    CLOUDY    37   3  23 N13       30.67S WCI  29
*FAITH RANCH   CLOUDY    36  19  51 N14       30.66F WCI  27
$$

TXZ173-191>194-202-209-217>225-228-162200-
CENTRAL AND SOUTH CENTRAL TEXAS

CITY           SKY/WX    TMP DP  RH WIND       PRES   REMARKS
GEORGETOWN     CLOUDY    27   5  39 N13G23    30.69S WCI  16
AUSTIN/BERGSTM CLOUDY    28  13  53 N22G28    30.67F WCI  14
AUSTIN/MABRY   CLOUDY    29   7  39 N10G22    30.68F WCI  20
*AUSTIN/EXEC   MIX PCPN  27   9  46 N21G26    30.68S WCI  13
*LAGO VISTA    CLOUDY    28   3  34 MISG      30.65S
SAN MARCOS     CLOUDY    28  16  60 N18       30.67S WCI  15
NEW BRAUNFELS  CLOUDY    28  15  58 N18       30.65S WCI  15
RANDOLPH AFB   CLOUDY    29  11  48 N13       30.64F WCI  18
PT SAN ANTONIO CLOUDY    29  14  52 N16       30.63S WCI  18
SAN ANTONIO    CLOUDY    28  10  46 N16G24    30.65S WCI  16
STINSON FIELD  CLOUDY    31  14  49 N15G23    30.65S WCI  20
*LA GRANGE     MIX PCPN  28  17  63 N12G22    30.65S WCI  17
*GIDDINGS      CLOUDY    26  16  65 N9G16     30.66F WCI  17
*GONZALES      CLOUDY    28  20  73 N15G21    30.66F WCI  16
$$

TXZ163>164-176>182-195>201-210>213-226-227-235-162200-
SOUTHEAST TEXAS

CITY           SKY/WX    TMP DP  RH WIND       PRES   REMARKS
COLLEGE STN    CLOUDY    26  13  57 N17G26    30.67F WCI  13
*BRYAN         CLOUDY    25  13  61 N12G20    30.68F WCI  14
*CALDWELL      CLOUDY    25  13  60 N14       30.68R WCI  13
*CROCKETT        N/A     23  14  68 CALM      30.70S
*BRENHAM       CLOUDY    27  18  67 N14G23    30.67R WCI  16
HUNTSVILLE     CLOUDY    24  16  71 NW15G21   30.65S WCI  11
CONROE         FLURRIES  25  18  74 N9G20     30.63F WCI  15
HOUSTON BUSH   FRZ RAIN  26  21  81 N18       30.62F WCI  13
HOUSTON HOBBY  LGTSLEET  27  24  89 N20       30.60F WCI  13
*HOUSTON SW AP MIX PCPN  26  23  87 MISG      30.62S
PEARLAND       CLOUDY    27  24  89 N16       30.61S WCI  15
HOUSTON HOOKS  FLURRIES  26  21  81 N14G22    30.63F WCI  14
ELLINGTON FLD  LGTSLEET  27  25  93 N3        30.61F FOG
SUGAR LAND     MIX PCPN  28  23  81 N21       30.62S WCI  15
*HOUSTON EXEC  MIX PCPN  25  19  80 CALM      30.64S
*CLEVELAND MUN LGT SNOW  25  20  80 N8        30.64R VSB 1   WCI  17
*WHARTON       CLOUDY    25  21  83 CALM      30.64R
*COLUMBUS      FLURRIES  25  17  69 N14       30.66S WCI  14
*EAGLE LAKE    CLOUDY    26  20  75 MISG      30.64F
$$

TXZ214>216-236>238-162200-
THE UPPER TEXAS COAST

CITY           SKY/WX    TMP DP  RH WIND       PRES   REMARKS
*ORANGE        FLURRIES  30  29  96 N8G16     30.58F WCI  23
PORT ARTHUR    CLOUDY    29  25  85 N21G31    30.57S WCI  16
GALVESTON      LGT SNOW  32  29  88 N25G39    30.58R FOG     WCI  19
ANGLETON         N/A    N/A N/A N/A MISG      30.59S
*BAY CITY      NOT AVBL
PALACIOS       MIX PCPN  28  25  88 N22G33    30.61S WCI  14
$$

TXZ229>234-239>247-162200-
TEXAS COASTAL BEND AND RIO GRANDE PLAINS

CITY           SKY/WX    TMP DP  RH WIND       PRES   REMARKS
VICTORIA       MIX PCPN  27  20  75 N22G29    30.64S WCI  13
*BEEVILLE      CLOUDY    28  21  75 N17G23    30.64F WCI  16
ROCKPORT       CLOUDY    29  25  85 N21       30.61F WCI  16
*PORT ARANSAS  NOT AVBL
*PORT LAVACA   CLOUDY    28  23  82 N20G28    30.63R WCI  15
*INGLESIDE     CLOUDY    31  26  83 N16       30.62S WCI  20
CORPUS CHRISTI CLOUDY    30  24  78 N21G31    30.63S WCI  17
CORPUS NAS     CLOUDY    32  27  81 N28G35    30.61R WCI  18
*ROBSTOWN      NOT AVBL
ALICE          CLOUDY    30  21  69 N21G32    30.63F WCI  17
KINGSVILLE NAS CLOUDY    30  26  85 N20G29    30.63S WCI  17
COTULLA        CLOUDY    33  17  51 N12       30.67F WCI  24
LAREDO         CLOUDY    31  27  85 N17       30.67S WCI  19
$$

TXZ248>255-162200-
DEEP SOUTH TEXAS

CITY           SKY/WX    TMP DP  RH WIND       PRES   REMARKS
BROWNSVILLE    NOT AVBL
PORT ISABEL    NOT AVBL
*SOUTH PADRE   NOT AVBL
HARLINGEN      LGT RAIN  34  30  86 MISG      30.57S
*HEBBRONVILLE  CLOUDY    29  27  92 N10       30.62F WCI  20
MCALLEN        LGT SNOW  36  30  80 NW18G25   30.62  FOG     WCI  25
*WESLACO       LGT SNOW  32  29  88 N15G25    30.60R WCI  22
FALFURRIAS     CLOUDY    31  27  83 N16G23    30.63S WCI  20
EDINBURG       LGT RAIN  34  32  91 N21G26    30.61F WCI  22
*ZAPATA        CLOUDY    32  30  93 N15G25    30.65S WCI  22
$$

TXZ213>215-236>238-242>244-246-247-251-254-255-162200-
CMAN STATIONS

STATION/POSITION TIME  TEMP    WIND        PRES    WAVE
                       AIR SEA DIR/SP/G            HT/PER
                 (UTC) (F)     (DEG/KT/KT) (MB)    (FT/S)
SABINE PASS      2030   33 50  350/ 15/ 22 1036.1
SEA RIM ST PARK  2000   31     360/  9/ 11 1034.9
NORTH JETTY/GLS  2030      44  360/ 11/ 13 1034.3
EAGLE POINT      2030   29 46   10/  7/ 11 1036.0
MORGANS POINT    2030   27 49   10/  6/  9 1036.3
PORT O`CONNOR    2030   29 41  360/ 23/ 28 1036.8
MALAQUITE BEACH  2030   31 53  340/ 21/ 25 1035.9
BAFFIN BAY       2030   31 51  340/ 22/ 26 1037.1
PORT ISABEL      2030   38 58  340/ 25/ 34 1032.5
$$



USA.gov is the U.S. government's official web portal to all federal, state and local government web resources and services.